Theta_e
317 316 316 316 316 317 317 317 318 320 322 325 324 324 323 323 323 322 321 320 321 321 319 319 317 315 312 311 310 306 304 303 302 301 300 300 299 299 299 298 297 297 297
322 321 321 320 319 319 320 320 322 321 323 325 324 323 320 323 323 322 320 320 321 320 320 318 316 312 310 308 305 304 303 301 300 300 299 298 298 298 297 296 296 296 295
324 324 324 324 323 323 323 323 323 323 319 320 326 322 323 323 323 321 321 321 319 319 319 316 311 310 308 306 303 303 302 301 299 298 298 297 297 296 294 294 294 293 293
325 325 325 325 325 325 324 324 325 325 325 321 321 324 323 323 322 320 321 320 319 318 315 313 310 307 305 303 302 302 301 298 296 296 295 294 293 293 293 293 292 292 292
326 326 326 326 326 326 325 325 326 326 323 324 325 325 324 322 321 321 319 319 318 315 311 310 306 304 302 301 301 300 297 295 294 293 292 292 291 290 291 291 291 291 290
326 326 326 327 327 327 324 325 328 327 326 323 322 324 322 321 320 319 319 318 315 312 310 308 303 301 300 300 298 296 296 293 292 292 291 290 289 288 286 283 283 283 284
324 326 327 327 328 327 326 327 326 326 326 323 323 321 321 320 320 318 317 314 311 308 307 303 301 300 299 298 296 296 293 292 291 290 288 285 284 283 283 284 283 283 283
326 326 326 327 327 327 326 324 324 325 324 324 324 321 320 318 316 315 312 310 307 304 301 300 300 299 297 295 296 292 291 289 286 284 284 284 284 284 284 285 285 285 285
328 328 328 328 327 326 324 325 325 324 324 322 320 318 317 315 313 310 307 305 302 301 300 299 298 297 296 293 291 290 287 285 285 284 284 283 283 282 282 285 285 285 285
329 328 328 327 327 326 326 322 322 321 320 317 315 313 312 310 307 304 302 301 300 298 298 297 295 293 292 291 287 285 284 284 284 284 283 283 282 281 281 281 284 284 285
330 329 326 326 325 325 325 323 320 317 314 312 310 308 306 302 301 300 298 297 297 297 295 293 292 291 288 285 284 283 283 283 282 281 281 281 281 281 280 281 282 283 284
327 327 325 325 324 322 321 318 314 312 309 306 304 302 301 300 299 298 297 297 295 294 293 292 289 285 284 283 282 282 281 281 280 280 280 280 280 280 280 280 282 283 284
324 322 321 319 317 314 313 311 309 305 303 302 300 300 299 298 297 297 295 294 293 292 290 287 284 283 282 281 281 281 280 280 280 280 279 279 279 279 279 280 282 283 285
320 317 315 312 310 308 306 304 303 301 301 301 299 299 298 297 295 294 293 292 290 288 285 282 282 281 281 280 280 280 279 279 278 278 278 278 278 278 279 280 281 283 285
314 312 309 307 306 304 303 302 302 301 300 299 298 297 296 295 293 292 290 288 286 283 282 281 281 280 280 279 279 278 278 278 277 277 277 277 277 277 278 278 281 282 283
311 308 307 306 304 303 302 300 298 298 297 296 295 294 293 291 290 289 287 284 285 282 280 280 279 279 278 277 277 277 276 276 275 275 275 275 275 276 277 277 279 280 281
309 307 305 304 303 301 298 298 297 292 291 290 290 289 289 288 286 283 283 282 280 279 278 278 277 277 277 276 276 275 274 274 274 273 273 273 274 274 275 276 277 279 280
305 303 302 299 297 295 293 291 290 290 289 287 287 287 285 284 285 283 282 283 281 279 277 277 277 277 276 275 274 274 273 273 272 273 273 272 272 273 274 275 275 277 278
297 295 295 293 292 291 290 290 289 289 288 287 286 285 284 283 282 281 280 280 279 278 277 276 276 275 274 273 273 272 272 272 272 272 272 272 272 272 273 273 274 276 277
295 294 292 291 290 289 289 289 288 287 286 285 283 282 281 280 280 279 278 278 277 276 275 275 274 273 272 271 271 271 271 271 271 271 271 271 271 272 272 272 273 274 276
290 289 289 289 288 287 286 285 284 283 282 281 280 279 279 278 278 277 276 275 275 274 273 273 272 271 271 270 270 270 270 270 270 270 270 270 270 271 271 272 272 273 274
287 287 286 285 284 283 282 282 281 280 279 278 278 277 276 276 275 274 274 273 272 272 271 271 270 270 269 269 269 269 269 269 270 269 270 270 270 270 270 271 272 272 273
284 284 283 282 281 280 280 279 278 277 276 276 275 274 274 273 273 272 272 271 270 270 269 269 268 268 268 268 268 268 269 269 269 269 269 269 269 270 270 271 271 272 273
282 281 280 280 279 278 277 276 275 274 274 273 273 272 272 271 271 270 269 269 268 268 267 267 267 267 267 267 267 268 268 268 268 268 268 268 269 269 270 270 271 272 272
279 278 278 277 276 275 274 273 273 272 271 271 270 270 269 269 268 268 267 266 266 266 265 265 265 266 266 267 267 268 268 268 268 268 268 268 268 269 269 269 270 271 272
275 274 273 273 272 272 271 271 270 270 269 268 268 268 267 267 266 266 265 265 265 265 265 265 265 266 266 267 267 267 268 268 268 268 268 268 268 269 269 269 270 271 272
Wind_Speed
44 45 47 47 43 45 48 44 42 41 40 36 31 35 32 36 42 36 32 27 25 26 27 29 29 27 26 23 23 21 20 22 25 27 28 26 27 28 27 27 30 33 36
51 46 47 52 54 51 50 47 35 38 42 42 36 42 30 35 39 37 30 27 30 26 27 27 28 23 20 22 21 19 20 21 25 29 29 29 28 28 31 33 33 31 33
52 51 53 53 53 55 53 52 42 40 40 46 36 36 36 34 32 33 27 27 25 26 27 27 22 20 21 22 19 20 22 24 26 28 29 28 28 29 32 34 36 38 38
56 54 53 56 56 49 47 47 43 44 49 41 39 39 34 32 32 27 27 27 27 27 25 23 22 21 21 21 22 23 24 25 23 23 26 28 30 32 35 38 42 42 43
49 51 55 56 55 47 41 38 37 36 37 39 38 38 38 31 29 27 27 28 28 26 23 20 21 20 22 23 25 23 23 22 23 25 27 31 34 37 39 41 43 47 50
44 47 48 51 49 51 40 39 37 38 41 37 34 34 30 30 29 28 28 28 25 22 22 23 21 22 22 22 22 23 22 23 24 28 31 35 37 39 40 40 41 43 44
40 44 47 45 44 44 42 38 38 40 36 34 33 28 29 29 30 29 26 22 21 22 22 22 24 23 23 21 23 23 22 24 27 31 33 34 35 33 34 35 34 35 40
35 37 41 43 43 44 42 41 40 33 29 31 31 28 28 28 25 24 23 22 22 22 22 23 22 22 23 22 23 23 25 26 27 28 28 29 30 29 29 30 32 36 38
31 33 34 37 40 39 35 34 30 31 31 28 25 27 27 25 25 23 23 23 22 22 21 22 22 23 23 22 24 25 26 26 27 27 28 28 27 26 24 26 29 30 36
32 32 32 33 31 29 28 27 29 25 25 28 26 25 24 23 23 20 19 20 20 20 20 20 19 19 21 23 24 25 25 26 26 27 27 28 28 27 24 22 25 27 28
30 25 23 22 22 23 26 27 27 26 24 25 25 24 21 19 19 19 19 18 19 19 18 18 19 20 21 22 25 23 23 25 25 26 27 28 28 27 25 22 23 26 28
22 21 21 24 27 27 27 26 23 23 25 26 25 24 22 21 21 21 21 19 18 17 17 18 18 19 21 22 22 21 22 23 24 25 26 28 28 28 28 26 26 25 26
22 23 24 24 23 21 22 23 24 23 24 24 23 23 23 23 23 21 19 16 15 16 17 17 18 20 20 18 19 21 22 23 25 26 27 28 28 29 28 28 27 24 22
21 21 21 21 21 20 20 20 21 22 22 21 22 23 20 20 18 17 16 15 15 15 16 17 17 18 19 20 20 20 21 23 24 25 26 27 28 28 27 25 28 28 24
20 20 21 21 21 22 20 19 19 19 18 17 18 18 19 18 17 16 14 14 15 16 17 18 18 17 18 19 20 20 21 22 23 24 25 26 27 27 26 24 24 26 23
20 21 22 22 22 20 21 21 19 16 18 17 16 16 17 16 14 16 16 15 19 20 16 15 16 17 17 18 19 21 22 23 23 23 24 24 25 26 26 25 23 24 25
19 22 22 22 22 22 21 22 24 20 17 15 13 12 12 14 17 14 13 15 15 11 13 14 15 16 17 18 20 21 22 23 24 23 23 23 24 24 24 24 23 23 24
24 26 26 25 22 21 20 17 14 10 8 7 11 14 14 12 13 12 13 14 13 13 14 14 15 18 20 20 21 23 23 24 23 23 22 22 22 24 24 22 21 21 23
21 21 20 21 19 17 15 13 11 11 12 12 11 12 12 11 11 11 11 12 14 14 15 17 19 19 21 22 22 23 24 23 23 23 23 22 21 22 22 21 21 18 20
14 15 13 12 12 10 9 9 9 9 9 10 10 10 10 11 12 13 15 16 16 17 17 17 19 20 21 22 23 23 23 22 22 23 23 22 20 19 20 21 21 20 18
11 11 8 8 7 6 6 6 6 6 6 6 7 8 10 13 14 15 16 16 16 17 17 18 19 21 22 24 24 24 23 22 23 22 22 21 20 20 19 19 19 19 19
8 8 7 6 5 4 3 2 3 3 4 6 8 9 11 13 14 14 15 15 16 17 19 20 22 23 24 25 25 24 23 23 21 20 20 20 20 20 19 19 19 18 18
8 7 6 4 3 2 2 2 3 4 5 7 8 9 11 11 13 14 15 16 18 20 21 23 24 25 26 25 23 23 24 22 20 19 20 21 21 20 19 19 19 19 17
7 6 5 4 4 4 4 4 5 5 5 7 9 11 13 15 16 17 18 20 21 22 23 24 25 26 25 24 21 21 21 21 20 19 20 22 21 18 18 19 18 18 18
7 6 6 6 5 6 6 7 7 8 9 10 12 13 15 16 17 19 20 20 22 23 23 23 24 24 24 24 21 20 19 19 19 19 20 20 19 18 18 19 19 18 17
8 8 7 7 7 7 8 8 9 10 12 13 14 15 17 18 18 19 20 22 24 24 24 23 23 23 22 21 19 19 17 17 17 18 19 19 19 19 19 20 19 19 18
Wind_Direction
226 227 228 230 233 237 240 244 251 257 263 265 264 259 258 252 254 249 249 248 256 249 255 247 252 253 260 262 263 255 264 271 277 284 289 290 289 289 287 290 288 288 289
230 227 234 237 238 238 240 244 244 261 264 264 255 253 261 255 253 252 245 251 245 246 250 249 249 249 255 259 251 255 260 265 276 283 287 290 290 291 293 292 291 288 288
232 234 236 238 243 242 242 245 238 246 241 252 255 254 255 256 253 249 245 242 246 252 252 245 244 251 257 244 240 255 263 271 276 279 286 288 290 293 294 294 294 294 291
235 231 235 238 243 245 249 248 251 245 245 251 253 252 250 260 254 248 243 241 244 246 245 245 247 250 237 232 242 259 268 278 276 278 283 290 295 298 298 300 298 295 295
240 237 235 238 241 243 251 253 256 247 243 241 243 249 251 250 245 239 239 240 242 240 236 240 242 234 227 239 255 262 273 277 277 283 290 295 297 300 301 302 299 298 296
241 243 240 237 244 241 248 252 250 252 245 239 242 241 244 241 241 236 238 240 238 236 237 238 228 224 233 251 262 269 281 278 283 290 294 297 299 300 302 301 301 303 304
239 241 242 243 242 243 244 249 249 249 245 233 237 239 237 243 233 232 239 235 236 237 232 223 221 230 242 257 262 275 273 279 287 291 293 296 298 303 304 305 308 304 302
236 237 240 241 241 244 246 241 245 245 233 231 229 238 235 227 229 236 236 232 228 222 217 219 230 241 248 261 269 270 276 283 287 290 292 297 301 305 305 305 302 303 302
236 237 238 239 239 240 240 239 231 221 213 225 234 230 224 226 232 226 215 218 217 217 222 229 235 247 258 264 271 277 282 286 287 291 293 296 299 300 298 296 299 299 299
234 235 241 244 242 237 228 218 212 213 230 233 223 219 220 218 212 207 212 220 220 222 230 237 245 253 263 272 278 283 287 289 293 296 301 306 309 310 308 292 291 297 295
234 240 242 243 244 233 222 216 220 230 219 205 204 201 204 207 207 205 215 218 229 233 238 247 257 265 271 276 282 287 289 294 300 304 307 309 311 312 313 307 297 291 287
228 227 231 222 218 216 216 217 214 211 202 199 198 197 196 202 209 210 218 222 229 237 248 259 268 272 279 284 288 288 291 297 303 307 310 312 314 315 316 315 309 298 290
214 211 210 209 207 209 209 206 203 201 202 198 198 199 202 203 209 212 217 224 237 251 264 273 278 284 287 290 290 292 296 302 306 308 311 313 315 315 315 313 309 306 297
214 209 209 209 203 199 198 202 203 203 199 204 206 206 208 205 208 215 226 240 256 270 277 282 286 288 289 286 289 293 300 304 309 312 312 312 312 312 314 316 315 318 306
210 207 201 195 193 187 188 197 205 208 217 220 214 214 215 216 222 231 244 258 270 278 286 285 281 280 283 287 294 301 306 308 310 311 311 311 311 311 312 314 313 315 306
205 198 197 196 191 196 201 194 192 199 196 200 207 213 212 221 234 249 259 268 282 278 276 277 282 286 292 298 303 307 308 310 312 313 313 312 311 312 312 312 313 317 314
209 196 193 195 195 195 193 194 189 176 178 184 195 211 226 242 255 257 272 278 275 281 286 287 288 293 299 303 306 307 309 311 313 313 313 313 312 310 311 313 313 314 315
190 187 184 181 179 174 169 168 171 184 201 208 230 242 248 253 261 263 267 276 286 295 291 290 295 300 301 302 304 304 306 307 309 310 312 313 311 306 310 310 311 314 317
173 166 163 162 163 171 179 192 209 220 227 235 241 254 265 271 275 280 290 295 299 298 293 293 295 296 297 298 300 302 303 306 309 311 312 310 310 309 310 311 311 311 309
161 165 170 175 180 193 206 218 227 242 250 255 262 269 271 275 282 290 298 302 301 297 294 293 295 298 299 301 303 304 305 305 306 307 306 307 307 305 307 310 312 317 312
138 145 157 172 181 196 212 224 229 232 239 250 259 266 271 280 289 296 300 301 300 298 296 297 299 299 301 303 304 303 302 303 306 305 305 306 305 305 309 310 310 314 314
127 130 135 141 146 158 181 215 250 271 284 288 288 286 286 290 296 298 297 296 294 293 295 295 297 299 300 302 303 303 301 305 305 302 301 301 304 307 310 309 310 311 314
106 106 108 106 92 70 28 353 332 320 309 300 295 295 297 300 299 298 296 294 295 295 296 298 298 297 297 300 300 299 301 301 301 301 301 302 305 309 310 310 312 313 313
80 75 63 49 32 22 12 358 347 338 323 310 304 301 300 301 301 301 302 302 300 300 300 299 297 297 298 299 297 295 293 294 295 296 300 300 301 305 307 309 310 311 311
48 40 31 23 13 4 350 339 331 324 319 315 312 311 309 308 309 310 307 306 307 306 305 301 298 298 298 298 297 293 288 290 292 295 296 293 296 299 304 306 307 305 308
30 25 18 8 357 347 339 333 329 324 320 317 314 311 309 309 308 308 310 310 310 310 308 306 303 301 298 295 292 289 287 288 291 294 293 291 292 296 299 301 303 301 301